This is the latest recevied weather packets stored in our database for station/object W4DHW-4. If no packets are shown the sender has not sent any weather packets the latest 10 day(s).
| Time | Temp. | Humidity | Pressure | Rain* | Wind** | Luminosity | Snow |
|---|---|---|---|---|---|---|---|
| 1777698771 | 13.33° C | 58% | 1014.3 hPa | 0 mm | - | 0 W/m² | - |
| 1777698467 | 13.33° C | 58% | 1014.5 hPa | 0 mm | - | 0 W/m² | - |
| 1777698162 | 13.33° C | 59% | 1014.3 hPa | 0 mm | - | 0 W/m² | - |
| 1777697860 | 13.33° C | 59% | 1014.1 hPa | 0 mm | - | 0 W/m² | - |
| 1777697557 | 13.33° C | 59% | 1014.2 hPa | 0 mm | - | 0 W/m² | - |
| 1777697254 | 13.33° C | 59% | 1014.3 hPa | 0 mm | - | 0 W/m² | - |
| 1777696950 | 13.89° C | 59% | 1014 hPa | 0 mm | - | 0 W/m² | - |
| 1777696648 | 13.89° C | 59% | 1014.1 hPa | 0 mm | - | 0 W/m² | - |
| 1777696345 | 13.89° C | 59% | 1014.2 hPa | 0 mm | - | 0 W/m² | - |
| 1777696044 | 13.89° C | 60% | 1014.3 hPa | 0 mm | - | 0 W/m² | - |
| 1777695742 | 13.89° C | 59% | 1014.2 hPa | 0 mm | - | 0 W/m² | - |
| 1777695439 | 13.89° C | 60% | 1014.1 hPa | 0 mm | - | 0 W/m² | - |
| 1777695136 | 13.89° C | 61% | 1014.2 hPa | 0 mm | - | 0 W/m² | - |
| 1777694833 | 13.89° C | 61% | 1013.9 hPa | 0 mm | - | 0 W/m² | - |
| 1777694530 | 14.44° C | 61% | 1014 hPa | 0 mm | - | 0 W/m² | - |
| 1777694226 | 14.44° C | 60% | 1014 hPa | 0 mm | - | 0 W/m² | - |
| 1777693923 | 14.44° C | 60% | 1013.8 hPa | 0 mm | - | 0 W/m² | - |
| 1777693621 | 14.44° C | 61% | 1013.7 hPa | 0 mm | - | 0 W/m² | - |
| 1777693319 | 13.89° C | 62% | 1013.6 hPa | 0 mm | - | 0 W/m² | - |
| 1777693017 | 13.89° C | 63% | 1013.5 hPa | 0 mm | - | 0 W/m² | - |
| 1777692714 | 12.78° C | 66% | 1013.4 hPa | 0 mm | - | 0 W/m² | - |
| 1777692410 | 12.78° C | 72% | 1013.2 hPa | 0 mm | - | 0 W/m² | - |
| 1777692106 | 12.22° C | 74% | 1013.2 hPa | 0 mm | - | 0 W/m² | - |
| 1777691804 | 12.22° C | 74% | 1013.2 hPa | 0 mm | - | 0 W/m² | - |
| 1777691502 | 12.22° C | 72% | 1013.2 hPa | 0 mm | - | 0 W/m² | - |
* Rain latest hour (hover to see other rain measurements)
** Current wind speed in m/s (hover to see current wind gust speed)